Погода в Струговке

Россия / Приморский край     43°59′53″N   131°40′07″E
темп.,
°C
ветер,
м/с
пор.,
м/с
влажн.,
%
обл.,
%
осадки,
мм/ч
давл.,
гПа
погр.,
м
25 июня, пт
пт2501:00+15ю369541 0.0 1010114
04:00+14ююв359818 0.0 1010108
07:00+15ю359512 0.0 1010157
10:00+21ю33725 0.0 1010482
13:00+26ююв335511 0.0 1009813
16:00+26ю67575 0.0 1008677
19:00+22ююв68719 0.0 1008372
22:00+17ююв5108574 0.0 1009257
26 июня, сб
сб2601:00+15ююв48955 0.0 1010209
04:00+14ю489815 0.0 1010186
07:00+15ю369415 0.0 1011196
10:00+22ю56661 0.0 1010610
13:00+27ююв77480 0.0 1010964
16:00+27ююв884693 0.0 1009851
19:00+22ююв81269100 0.0 1009429
22:00+17ююв5989100 0.0 1010218
27 июня, вс
вс2701:00+15ююв4997100 0.0 1011201
04:00+15ююв4996100 0.0 1011226
07:00+15ююв499297 0.0 1011275
10:00+22ю576884 0.0 1011696
13:00+26ююв665396 0.0 10101258
16:00+25ююв785212 0.0 1008837
19:00+22ююв711655 0.0 1007421
22:00+15юв48875 0.0 1008148
28 июня, пн
пн2801:00+13ююв35964 0.0 100897
04:00+12ююз229598 0.0 100818
07:00+14ю11897 0.0 100861
10:00+22ю116450 0.0 1008425
13:00+27в22465 0.0 1007877
16:00+28в22440 0.0 10051270
19:00+26ююв56528 0.0 1005328
22:00+17ююв497611 0.0 1007196
29 июня, вт
вт2901:00+14ююв38905 0.0 1008153
04:00+13ююв359422 0.0 1008106
07:00+14ююв37865 0.0 1009168
10:00+22ю565212 0.0 1009674
13:00+27ююв56418 0.0 10071044
16:00+26ююв884310 0.0 1006922
19:00+23ююв695450 0.0 1007576
22:00+15ююв6138516 0.0 1008273